DELTA 1 DEB, 10658

Orbit data source: Space-Track

DELTA 1 DEB, 10658 is space debris in SSO originally from a launch on Thu, 29 Jul 1976 UTC launched from the Air Force Western Test Range (AFWTR). Debris objects in space refer to the collection of defunct objects orbiting the Earth. Examples of debris include non-operational satellites, rocket bodies, and fragments generated from explosions, collisions, or faulty payload assembly.

Loading next visibility...
Identifier
10658, 1976-077U
Orbit
SSO
Country
Flag of USUS
Related business
Manufacturer
Unknown
Mission
Spacecraft
Bus & Motor
Unknown
Mass
Unknown
Launch date (UTC)
1976-07-29 (50 years ago)
Launch vehicle
Unknown
Launch site
Air Force Western Test Range (AFWTR)
Object type
Payload
Rocket body
Debris
Shape & HBR
Unknown shape, 0.7 m
Radar Cross Section
Medium (>0.1 m² and <1 m²)

Expand to show TLE details & history
Last TLE update: 18 hours ago

TLE from 18 hours ago
0 DELTA 1 DEB
1 10658U 76077U   26067.89373584 -.00000032  00000-0  12136-3 0  9997
2 10658 102.4821  54.6161 0056722 189.3002 241.2659 12.29956810227595
Epoch: 2026-03-08T21:26Z
TLE epoch observation values (Epoch: 2026-03-08T21:26:58.776Z)
Latitude
66.64056°
Longitude
-104.39121°
Altitude
1,582.607 km
Speed
7.074 km/s
True Right ascension
01h 35m 47s
True Declination
66° 31' 41"
Sunlit
Object was in daylight at epoch
Visualization orbit readout
Latitude
Unknown
Longitude
Unknown
Altitude
Unknown
Speed
Unknown
Apparent Right ascension
Unknown
Apparent Declination
Unknown
Sunlit
N/A
Visualization observer readout
Local Sidereal Time
19:25:56
Azimuth
Unknown
Elevation
Unknown
Doppler factor
Unknown
Orbital elements
Apogee altitude
1,592.037 km
Perigee altitude
1,502.13 km
Semi-major axis
7,925.221 km
Eccentricity
0.00567
Inclination
102.4821°
RAAN
54.6161°
Arg. of periapsis
189.3002°
True anomaly
240.6979°
Mean anomaly
241.2659°
Eccentric anomaly
240.9817°
Mean motion
3.07628 °/min
Orbital period
117.02 mins
BSTAR
0.00012136
Loading maneuver chart data...
Computing Atmospheric mass density...
Loading historical data...
Loading historical data...
Loading historical data...
Loading historical data...
Loading historical data...
Loading historical data...
Loading historical data...

Documentation

Showing up to 5 results
|